Regional Weather Roundup
Issued by NWS Green Bay, WI

Home | Current Version | Previous Version | Graphics & Text | Print | Product List | Glossary Off
Versions: 1 2 3 4 5 6 7 8 9 10 11 12 13 14 15 16 17 18 19 20 21 22 23 24 25 26 27 28 29 30 31 32 33 34 35 36 37 38 39 40 41 42 43 44 45 46 47 48 49 50

000
ASUS43 KGRB 302311
RWRGRB

NORTH-CENTRAL AND NORTHEAST WISCONSIN REGIONAL WEATHER ROUNDUP
NATIONAL WEATHER SERVICE GREEN BAY WI
600 PM CDT MON MAY 30 2016

WIZ005-009-010>012-018-019-310000-
NORTH CENTRAL WISCONSIN

CITY           SKY/WX    TMP DP  RH WIND       PRES   REMARKS
IRONWOOD       SUNNY     75  45  33 N6        29.93S
MANITOWISH WTR NOT AVBL
ARBOR VITAE    MOSUNNY   77  45  32 N3        29.98S
EAGLE RIVER      N/A     74  38  27 NW6       29.97S
LAND O LAKES   SUNNY     76  39  25 W9        29.98S
RHINELANDER    CLOUDY    75  45  34 CALM      29.98F
PHILLIPS       SUNNY     76  53  43 S7        29.96S
ANTIGO         SUNNY     74  53  47 CALM      29.98F
TOMAHAWK       MOSUNNY   76  48  37 W5        29.97F
MERRILL        MOSUNNY   78  50  37 NW3       29.98S
$$

WIZ013-073-310000-
NORTHEAST WISCONSIN

CITY           SKY/WX    TMP DP  RH WIND       PRES   REMARKS
IRON MOUNTAIN  MOSUNNY   78  42  27 NW10      29.94S
MARINETTE      PTSUNNY   80  48  32 VRB6      29.94S
OCONTO         SUNNY     80  48  32 NW5       29.94S
$$

WIZ017-030-035>037-045-310000-
CENTRAL WISCONSIN

CITY           SKY/WX    TMP DP  RH WIND       PRES   REMARKS
MEDFORD        SUNNY     76  51  41 CALM      29.97F
WAUSAU         SUNNY     79  49  34 VRB5      29.96F
MOSINEE        NOT AVBL
MARSHFIELD     SUNNY     79  50  36 NW6       29.97F
WISC RAPIDS    SUNNY     82  45  27 N7        29.98F
STEVENS POINT  SUNNY     77  46  34 W8        29.98F
WAUPACA        SUNNY     82  46  29 NW5       29.97S
SHAWANO        SUNNY     81  46  29 W6        29.96S
CLINTONVILLE   SUNNY     79  43  27 NW7       29.96F
WAUTOMA        SUNNY     81  47  30 VRB3      29.97S
$$

WIZ038-039-048-051-310000-
FOX VALLEY

CITY           SKY/WX    TMP DP  RH WIND       PRES   REMARKS
NWS GREEN BAY  SUNNY     81  50  33 NW5       29.96F
APPLETON       MOSUNNY   79  45  29 VRB5      29.96F
OSHKOSH        SUNNY     80  47  31 NW5       29.97S
FOND DU LAC    SUNNY     80  51  36 CALM      29.97F
$$

WIZ022-050-052-310000-
EAST CENTRAL WISCONSIN

CITY           SKY/WX    TMP DP  RH WIND       PRES   REMARKS
EPHRAIM        FAIR      73  54  50 S5        29.94S
STURGEON BAY   NOT AVBL
MANITOWOC      SUNNY     72  56  57 S9        29.98S
SHEBOYGAN      SUNNY     74  57  55 S8        29.98S
$$

LMZ563-521-522-541>543-310000-
LAKESHORE

STATION/POSITION TIME  TEMP    WIND        PRES    VSBY  WAVE
                       AIR SEA DIR/SP/G                  HT/PER
                 (UTC) (F)     (DEG/KT/KT) (MB)    (MI)  (FT/S)
SHEBOYGAN LKSHOR 2300   67     180/ 15/ 15 1015.3S
KEWAUNEE LKSHORE 2200   58                   N/A
NORTHPORT PIER   2200   69     150/  5/ 10 1013.9F
N MID LAKE BUOY  2250   53 50  200/ 10/ 10 1013.8F         1
CHAMBERS ISLAND  2200   76     180/  3/  8 1013.9F
MENOMINEE LKSHOR 2200   71                   N/A
$$



USA.gov is the U.S. government's official web portal to all federal, state and local government web resources and services.